Regional Weather Roundup
Issued by NWS

Home | Current Version | Previous Version | Graphics & Text | Print | Product List | Glossary Off
Versions: 1 2 3 4 5 6 7 8 9 10 11 12 13 14 15 16 17 18 19 20 21 22 23 24 25 26 27 28 29 30 31 32 33 34 35 36 37 38 39 40 41 42 43 44 45 46 47 48 49 50

000
ASUS43 KDTX 190601
RWRMI
MICHIGAN HOURLY REGIONAL WEATHER ROUNDUP
NATIONAL WEATHER SERVICE DETROIT/PONTIAC MI
100 AM EST MON FEB 19 2018

NOTE: "FAIR" INDICATES FEW OR NO CLOUDS BELOW 12,000 FEET WITH NO
SIGNIFICANT WEATHER AND/OR OBSTRUCTION TO VISIBILITY.

MIZ047>049-052>055-059>063-066>070-074>076-081>083-190700-
SOUTHEAST LOWER MICHIGAN

CITY           SKY/WX    TMP DP  RH WIND       PRES   REMARKS
ADRIAN         FAIR      31  26  82 S5        30.07S WCI  26
6HR MIN TEMP:  30; 6HR MAX TEMP:  34;

ALMA           FAIR      34  30  86 S10G18    29.98F WCI  26
6HR MIN TEMP:  32; 6HR MAX TEMP:  35;

ANN ARBOR      FAIR      31  27  85 SE3       30.06S
BAD AXE        FAIR      32  27  80 S18G26    30.04F WCI  20
6HR MIN TEMP:  30; 6HR MAX TEMP:  32;

CARO           FAIR      32  27  82 S10       30.03R WCI  24
DETROIT CITY   FAIR      32  26  78 S8        30.08F WCI  25
6HR MIN TEMP:  30; 6HR MAX TEMP:  33;

DETROIT        MOCLDY    33  27  78 S7        30.08F WCI  27
6HR MIN TEMP:  31; 6HR MAX TEMP:  34;

FLINT          FAIR      34  27  75 S10       30.05R WCI  26
6HR MIN TEMP:  29; 6HR MAX TEMP:  34;

GROSSE ILE     FAIR      32  28  83 S10G17    30.07S WCI  24
6HR MIN TEMP:  31; 6HR MAX TEMP:  34;

HILLSDALE      FAIR      32  28  86 SE8       30.00F WCI  25
HOWELL         FAIR      33  29  84 S13       30.03S WCI  24
6HR MIN TEMP:  30; 6HR MAX TEMP:  33;


CITY           SKY/WX    TMP DP  RH WIND       PRES   REMARKS
JACKSON        FAIR      36  29  75 SE14      30.00F WCI  27
6HR MIN TEMP:  31; 6HR MAX TEMP:  36;

LAMBERTVILLE   FAIR      33  28  81 S5        30.07S WCI  29
6HR MIN TEMP:  33; 6HR MAX TEMP:  37;

LANSING        FAIR      34  29  82 S13       30.00F WCI  25
6HR MIN TEMP:  31; 6HR MAX TEMP:  35;

LAPEER         FAIR      32  27  80 S6        30.06R WCI  26
6HR MIN TEMP:  31; 6HR MAX TEMP:  33;

MASON          FAIR      35  27  74 S13       30.01F WCI  26
6HR MIN TEMP:  32; 6HR MAX TEMP:  35;

MT. CLEMENS    FAIR      30  30  99 S12       30.06F WCI  21
6HR MIN TEMP:  27; 6HR MAX TEMP:  30;

PONTIAC        FAIR      32  27  81 S9        30.05S WCI  24
6HR MIN TEMP:  30; 6HR MAX TEMP:  33;

PORT HOPE        N/A     32  25  75 S14G23    30.02F WCI  22
6HR MIN TEMP:  31; 6HR MAX TEMP:  34;

PORT HURON     FAIR      32  25  74 S9        30.07F WCI  24
TRI CITIES     FAIR      35  27  72 S17       30.01S WCI  25
6HR MIN TEMP:  31; 6HR MAX TEMP:  35;

MIDLAND        FAIR      34  28  77 S7        30.00F WCI  28
6HR MIN TEMP:  32; 6HR MAX TEMP:  35;

TROY           FAIR      33  28  81 S6        30.09S WCI  28
SAGINAW HB     FAIR      34  28  80 S15       30.01F WCI  24
$$
MIZ043>046-050>051-056>058-064>065-071>073-077>080-190700-
SOUTHWEST LOWER MICHIGAN

CITY           SKY/WX    TMP DP  RH WIND       PRES   REMARKS
BATTLE CREEK   FAIR      36  29  75 S16       29.97F WCI  26
6HR MIN TEMP:  32; 6HR MAX TEMP:  36;

BENTON HARBOR  MOCLDY    40  30  67 S15G23    29.92F WCI  32
6HR MIN TEMP:  35; 6HR MAX TEMP:  40;

BIG RAPIDS     FAIR      32  26  79 MISG      29.95R
6HR MIN TEMP:  32; 6HR MAX TEMP:  34;

COLDWATER      FAIR      35  30  83 S8        30.00F WCI  29
6HR MIN TEMP:  33; 6HR MAX TEMP:  36;

FREMONT        FAIR      34  24  66 S5        29.95R WCI  30
6HR MIN TEMP:  33; 6HR MAX TEMP:  35;

HOLLAND        FAIR      38  29  70 S16       29.93F WCI  29
6HR MIN TEMP:  34; 6HR MAX TEMP:  39;

GRAND RAPIDS   FAIR      39  30  70 S18G25    29.94F WCI  30
6HR MIN TEMP:  34; 6HR MAX TEMP:  39;

IONIA          FAIR      35  29  79 S12       29.96F WCI  27
6HR MIN TEMP:  32; 6HR MAX TEMP:  36;

KALAMAZOO      FAIR      37  29  72 S8        29.97F WCI  31
6HR MIN TEMP:  33; 6HR MAX TEMP:  37;

LUDINGTON      CLOUDY    37  30  73 S9        29.91F WCI  31
6HR MIN TEMP:  34; 6HR MAX TEMP:  38;

MARSHALL       FAIR      35  29  78 S10G16    29.99F WCI  28
6HR MIN TEMP:  31; 6HR MAX TEMP:  36;

MOUNT PLEASANT FAIR      35  28  76 S10       29.97F WCI  27
6HR MIN TEMP:  33; 6HR MAX TEMP:  35;

MUSKEGON       MOCLDY    38  28  67 SE8       29.94R WCI  32
6HR MIN TEMP:  34; 6HR MAX TEMP:  38;

SOUTH HAVEN    FAIR      39  30  69 S10G17    29.92F WCI  33
$$
MIZ016>042-190700-
NORTHERN LOWER MICHIGAN

CITY           SKY/WX    TMP DP  RH WIND       PRES   REMARKS
ALPENA         FAIR      33  26  75 S9        30.00R WCI  25
6HR MIN TEMP:  33; 6HR MAX TEMP:  34;

BEAVER ISLAND  CLOUDY    36  24  63 S7        29.92F WCI  30
6HR MIN TEMP:  34; 6HR MAX TEMP:  37;

BELLAIRE       FAIR      32  25  75 S3        29.96R
6HR MIN TEMP:  32; 6HR MAX TEMP:  37;

CADILLAC       FAIR      32  27  83 S9G16     29.92F WCI  24
CHARLEVOIX     FAIR      34  20  57 SE3       29.97S
6HR MIN TEMP:  34; 6HR MAX TEMP:  38;

FRANKFORT      FAIR      34  25  69 SE7       29.92F WCI  28
GAYLORD        FAIR      30  25  81 S13       29.93S WCI  20
6HR MIN TEMP:  30; 6HR MAX TEMP:  33;

GRAYLING       FAIR      30  26  84 S7        29.94F WCI  24
6HR MIN TEMP:  30; 6HR MAX TEMP:  33;

HARBOR SPRINGS FAIR      34  19  56 S3        29.94F
HOUGHTON LAKE  FAIR      31  25  78 S8G18     29.97R WCI  23
6HR MIN TEMP:  30; 6HR MAX TEMP:  33;

MANISTEE       FAIR      31  25  78 E5        29.92F WCI  26
OSCODA         FAIR      32  26  77 S10G26    30.01R WCI  24
6HR MIN TEMP:  31; 6HR MAX TEMP:  33;

PELLSTON       CLOUDY    37  19  48 S7        29.94S WCI  32
6HR MIN TEMP:  34; 6HR MAX TEMP:  38;

ROGERS CITY    CLOUDY    33  22  64 S9        29.99S WCI  26
TRAVERSE CITY  FAIR      35  23  61 CALM      29.93S
6HR MIN TEMP:  35; 6HR MAX TEMP:  40;

$$
MIZ007>008-015-190700-
EASTERN UPPER MICHIGAN

CITY           SKY/WX    TMP DP  RH WIND       PRES   REMARKS
KINROSS        CLOUDY    30  25  81 SE8       29.93S WCI  22
6HR MIN TEMP:  27; 6HR MAX TEMP:  32;

MACKINAC ISLAN CLOUDY    34  20  55 S8        29.93S WCI  28
6HR MIN TEMP:  33; 6HR MAX TEMP:  35;

NEWBERRY       LGT SNOW  33  30  88 S21G26    29.88F WCI  21
6HR MIN TEMP:  27; 6HR MAX TEMP:  33;

S. S. MARIE    CLOUDY    33  25  72 SE8       29.93S WCI  26
6HR MIN TEMP:  28; 6HR MAX TEMP:  33;

MUNISING         N/A     34  29  82 S12G23    29.83S WCI  25
6HR MIN TEMP:  33; 6HR MAX TEMP:  35;

$$
MIZ004>006-011>014-085-190700-
CENTRAL UPPER MICHIGAN

CITY           SKY/WX    TMP DP  RH WIND       PRES   REMARKS
MANISTIQUE     CLOUDY    34  32  94 S12G17    29.88F WCI  25
6HR MIN TEMP:  31; 6HR MAX TEMP:  34;

ESCANABA       CLOUDY    32  28  85 S7        29.85F WCI  26
6HR MIN TEMP:  31; 6HR MAX TEMP:  33;

MENOMINEE      CLOUDY    35  28  75 S8        29.85F WCI  29
6HR MIN TEMP:  32; 6HR MAX TEMP:  35;

SAWYER-GWINN   CLOUDY    30  24  79 S12       29.80F WCI  20
6HR MIN TEMP:  29; 6HR MAX TEMP:  30;

$$
MIZ001>003-009>011-084-190700-
WESTERN UPPER MICHIGAN

CITY           SKY/WX    TMP DP  RH WIND       PRES   REMARKS
IRON MOUNTAIN  CLOUDY    30  24  78 SE3       29.79F
6HR MIN TEMP:  29; 6HR MAX TEMP:  31;

HOUGHTON       CLOUDY    26  21  81 N12       29.78S WCI  16
6HR MIN TEMP:  26; 6HR MAX TEMP:  28; 6HR PCP:  0.06;

COPPER HARBOR    N/A     27  24  89 NE13      29.82R WCI  16
6HR MIN TEMP:  27; 6HR MAX TEMP:  29; 6HR PCP:  0.13;

IRONWOOD       FLURRIES  24  23  96 N7        29.82R WCI  16
6HR MIN TEMP:  24; 6HR MAX TEMP:  35; 6HR PCP: TRACE;

$$

ABBREVIATIONS USED IN REMARKS
   TC - TEMPERATURE IN CELSIUS
  WCI - WIND CHILL INDEX
   HX - HEAT INDEX
  VSB - VISIBILITY





USA.gov is the U.S. government's official web portal to all federal, state and local government web resources and services.